Location: Newark
(9.4667°S, 159.8167°E)
Time: 12:47:34
(UTC+00:00)

Vanguard 1 - Pass Details

Date: 20 November 2019
Orbit: 652 x 3831 km, 34.3° (Epoch: 07 December)

Event Time Altitude Azimuth Distance (km) Brightness Sun altitude
Rises 08:47:44 0° 302° (WNW) 3,579 13.4 -20.0°
Reaches altitude 10° 08:49:48 10° 300° (WNW) 2,852 12.9 -20.5°
Maximum altitude 08:56:47 80° 214° (SSW) 1,535 11.0 -22.0°
Drops below altitude 10° 09:10:12 10° 127° (SE) 5,203 13.5 -25.0°
Sets 09:15:24 0° 126° (SE) 6,717 14.1 -26.2°
